Zurück zum Katalog

CZ-6A DEB

AktivSSO
NORAD 56597·DEBRIS·🇨🇳 China

Gestartet Nov 11, 2022 von Taiyuan Satellite Launch Center

Loading…

Nächste Überflüge (nächste 24 Stunden)

TLE

AktuellSource: Space-Track

Epoche: Sep 12, 2026, 19:26 UTC

1 56597U 22151ADV 26255.81024953  .00002250  00000-0  10010-2 0  9998
2 56597  98.9130 282.5055 0102846  10.0398 350.2801 14.21122798174810

Verfolge CZ-6A DEB in Echtzeit mit AllMySat

Download on the App Store